Lapse_Rate
5.7 6.3 6.1 5.7 4.7 4.3 4.1 3.9 4.1 4.7 5.2 5.0 5.3 5.5 5.6 6.1 6.5 6.4 6.1 6.0 6.0 6.3 6.6 6.7 6.7 6.7 6.7 6.6 6.8 6.3 6.6 5.8 5.8 5.7 5.1 4.9 5.4 5.7 5.3 5.4 5.6 5.6 5.8 6.0
5.9 6.6 5.6 5.2 4.8 4.6 4.5 4.5 4.5 4.9 5.2 5.3 5.2 5.6 5.9 6.0 6.1 6.1 6.1 5.9 6.1 6.2 6.2 6.3 6.4 6.5 6.7 6.5 6.4 6.1 6.3 6.3 6.1 5.6 5.5 4.9 5.1 5.1 5.1 5.4 5.1 5.5 5.7 5.7
6.2 6.1 5.5 5.4 4.8 5.1 4.8 4.6 4.4 4.5 5.2 5.4 5.3 5.8 6.0 5.9 6.1 6.2 6.1 6.1 6.3 6.4 6.3 6.3 6.2 6.2 6.3 6.2 6.2 6.2 6.1 5.9 5.9 5.8 5.5 5.2 5.1 5.1 5.1 5.1 5.0 5.3 5.8 5.7
6.2 6.0 5.5 5.3 5.3 5.1 4.8 4.6 4.6 4.5 4.5 5.4 5.3 5.3 6.0 6.1 6.2 6.2 5.9 6.0 6.1 6.5 6.4 6.2 6.2 6.2 6.0 6.2 6.2 6.2 6.1 6.2 6.0 6.2 5.4 5.4 5.3 5.2 5.0 4.8 4.9 5.1 5.4 5.5
6.1 5.9 5.4 5.4 5.3 5.2 4.9 4.7 4.7 4.7 4.3 5.0 5.2 5.0 5.9 6.1 6.2 6.1 6.0 6.0 6.0 6.1 6.4 6.3 6.2 6.0 6.0 6.0 6.0 6.0 5.9 6.1 6.0 5.9 5.4 5.5 5.5 5.3 5.2 5.0 5.2 5.2 5.4 5.6
6.1 6.3 5.5 5.2 5.2 5.2 5.3 4.9 4.7 4.7 4.1 3.4 4.8 5.0 5.8 5.6 5.8 6.0 6.2 6.1 6.0 6.0 5.9 6.2 5.9 5.8 5.8 5.9 5.8 5.8 5.9 5.8 6.2 6.1 5.8 5.7 5.7 5.8 5.7 5.6 5.6 5.5 5.5 5.5
6.1 6.2 5.8 5.2 5.3 5.0 5.2 5.4 4.5 3.0 2.5 2.9 4.8 5.2 6.2 5.9 6.0 6.0 5.9 5.9 6.0 6.0 6.0 6.0 5.9 5.6 5.4 5.5 5.8 5.9 6.1 5.8 5.8 5.7 5.7 5.7 5.6 5.6 5.6 5.7 5.7 5.6 5.4 5.4
6.1 6.3 5.7 5.5 5.2 5.1 5.2 5.0 4.5 2.9 2.1 2.8 4.9 5.7 6.5 6.2 5.9 5.8 5.6 5.6 5.9 6.1 6.1 6.1 5.9 5.6 5.3 5.2 5.3 5.8 6.0 6.0 5.9 5.9 5.8 5.4 5.4 5.5 5.1 5.1 5.1 5.3 5.2 5.0
6.0 6.2 5.7 5.4 5.3 5.2 4.8 4.5 4.2 3.6 3.2 2.6 4.8 5.5 6.0 6.1 5.7 5.5 5.6 5.7 5.9 6.1 6.1 6.1 6.0 5.8 5.3 5.0 5.1 5.3 5.6 6.0 6.2 6.2 6.1 6.0 5.8 5.6 5.2 5.2 5.3 5.3 5.3 4.9
6.4 6.1 5.8 5.4 5.1 4.9 4.9 4.5 4.1 4.0 1.4 2.0 4.4 4.9 5.8 6.1 5.9 5.9 6.0 6.1 6.0 6.0 5.9 5.8 5.9 5.8 5.5 5.0 4.9 5.2 5.5 5.7 5.9 6.2 6.4 6.4 6.4 6.3 6.1 5.9 5.8 5.6 5.5 5.2
6.7 5.9 5.5 5.3 5.1 4.9 5.0 4.7 4.5 4.1 3.8 2.0 1.0 5.3 5.8 5.9 6.3 6.3 6.4 6.3 6.2 6.2 6.0 5.9 5.8 5.7 5.4 4.9 4.7 5.0 5.3 5.5 5.6 5.8 6.0 6.4 6.5 6.5 6.4 6.3 6.1 6.0 5.8 5.6
6.5 5.9 5.3 5.4 5.2 5.1 5.1 4.9 4.3 4.3 3.8 3.6 3.2 5.0 5.9 5.7 6.3 6.7 6.8 6.9 6.6 6.5 6.3 6.2 5.9 5.6 5.2 4.9 4.9 4.9 5.1 5.5 5.7 5.9 6.0 6.2 6.4 6.6 6.6 6.4 6.2 6.1 6.0 5.8
6.2 5.7 5.4 5.5 5.2 5.2 5.0 5.1 4.7 4.3 4.0 3.9 2.7 5.8 5.9 5.6 6.2 7.1 7.4 7.2 7.0 6.8 6.6 6.4 6.2 5.8 5.3 5.1 5.0 5.1 5.3 5.3 5.6 5.7 5.9 6.2 6.3 6.5 6.5 6.4 6.2 6.2 6.0 5.8
5.5 6.3 5.8 5.6 5.7 5.6 5.3 5.2 5.0 4.2 4.2 4.7 5.3 6.0 5.5 5.6 6.1 7.0 7.5 7.5 7.5 7.1 6.8 6.7 6.4 6.2 5.8 5.4 5.3 5.2 5.2 5.3 5.4 5.7 6.0 6.1 6.2 6.3 6.2 6.2 6.3 6.2 6.1 5.9
5.5 6.2 6.2 5.7 5.4 5.6 5.7 5.8 5.3 5.5 5.0 5.1 6.2 6.2 6.0 6.1 6.3 6.4 7.0 7.8 7.8 7.5 7.2 7.0 6.9 6.5 6.1 5.8 5.6 5.3 5.3 5.3 5.4 5.6 5.7 5.8 5.8 6.0 6.0 5.7 5.6 5.8 5.8 5.8
5.6 5.7 6.2 5.9 5.9 5.9 6.1 5.9 5.9 5.9 6.0 6.1 6.0 6.6 6.2 6.1 6.4 6.5 6.3 7.0 8.0 7.7 7.4 7.2 7.0 6.8 6.5 6.1 5.7 5.5 5.2 5.1 5.2 5.2 5.3 5.4 5.7 5.7 5.7 5.7 5.8 5.7 5.7 5.7
5.3 5.8 5.6 5.6 5.7 5.8 6.2 7.0 6.9 6.6 6.6 6.3 6.4 6.5 6.4 6.2 6.3 6.5 6.4 6.6 7.0 7.4 7.3 7.2 7.1 7.0 6.8 6.5 6.1 5.7 5.2 5.0 5.1 5.1 5.3 5.4 5.5 5.4 5.4 5.5 5.5 5.2 4.6 5.1
5.2 5.5 5.3 5.2 5.6 3.6 6.7 6.8 6.6 6.7 6.8 6.8 6.7 6.5 6.5 6.4 6.4 6.5 6.6 6.6 6.8 7.1 7.2 7.2 7.1 7.2 7.3 7.0 6.8 6.5 6.1 5.7 5.6 5.6 5.8 5.9 5.7 5.4 5.6 5.7 5.7 5.6 5.1 4.9
5.3 5.1 5.3 5.2 5.2 6.6 6.8 6.6 6.9 6.8 6.8 6.8 6.8 6.6 6.6 6.5 6.4 6.4 6.5 6.6 6.6 6.8 7.0 7.1 7.0 7.1 7.3 7.2 7.1 6.9 6.7 6.5 6.1 6.4 6.3 6.0 5.9 6.1 6.2 6.4 6.4 6.1 5.7 5.5
5.2 4.7 4.6 5.0 4.7 3.3 7.0 6.6 6.6 6.6 6.7 6.8 6.8 6.7 6.5 6.5 6.5 6.2 6.2 6.4 6.5 6.6 6.7 6.8 6.9 6.9 7.0 7.3 7.3 7.1 7.1 6.9 6.5 6.2 6.3 6.4 6.7 6.7 6.8 6.8 6.8 6.6 6.1 5.9
4.9 3.9 4.3 4.7 4.7 6.2 6.8 6.4 6.2 6.1 6.7 6.7 6.7 6.7 6.7 6.6 6.5 6.3 6.0 6.1 6.3 6.4 6.6 6.8 6.8 7.0 6.9 7.0 7.3 7.3 7.3 7.5 7.3 7.2 7.1 7.0 7.0 7.3 7.3 7.3 7.2 7.1 7.1 6.9
6.1 5.6 5.4 4.9 3.8 5.2 6.8 6.5 6.3 6.4 6.4 6.5 6.6 6.5 6.5 6.4 6.7 6.6 6.6 6.0 6.3 6.6 6.4 6.5 6.8 6.9 7.1 7.0 7.0 7.3 7.5 7.4 7.5 7.6 7.5 7.5 7.4 7.3 7.3 7.3 7.2 7.2 7.2 7.2
5.5 6.1 6.5 6.7 6.6 6.6 6.7 6.5 6.5 6.3 6.1 6.2 6.4 6.6 6.4 6.3 6.5 6.7 6.7 6.8 6.2 6.3 6.8 6.6 6.6 6.8 6.9 7.1 7.3 7.3 7.3 7.4 7.4 7.4 7.5 7.5 7.4 7.3 7.2 7.2 7.2 7.2 7.3 7.3
5.6 6.1 6.2 6.5 6.9 6.6 6.3 6.5 6.2 6.1 6.1 6.3 6.3 6.3 6.4 6.3 6.4 6.6 6.7 6.8 6.8 6.6 6.5 6.9 6.9 6.8 6.9 7.0 7.1 7.3 7.4 7.4 7.5 7.5 7.5 7.5 7.5 7.5 7.5 7.4 7.3 7.2 7.2 7.2
5.8 6.1 6.5 6.7 7.1 6.4 6.6 6.2 6.2 6.3 6.3 6.3 6.3 6.3 6.4 6.6 6.5 6.6 6.7 6.8 6.7 6.8 6.9 6.8 6.9 6.8 6.9 7.0 7.0 7.1 7.1 7.3 7.2 7.2 7.2 7.2 7.3 7.3 7.3 7.3 7.3 7.2 7.1 7.1
5.8 6.3 6.8 7.5 7.1 6.3 6.6 6.2 6.4 6.5 6.1 6.0 6.3 6.7 6.7 6.6 6.5 6.5 6.7 6.7 6.8 6.8 6.7 7.0 7.1 7.0 6.7 6.9 7.0 7.0 7.0 7.0 7.0 7.2 7.2 7.2 7.2 7.3 7.3 7.3 7.3 7.2 7.2 7.2
Wind_Speed
6 9 5 5 3 3 2 1 3 4 2 5 1 3 3 1 5 5 5 5 6 6 4 6 7 6 7 9 10 11 10 9 7 5 3 3 2 4 5 3 4 12 13 15
6 5 5 3 7 5 5 3 5 7 5 4 2 2 3 2 0 1 3 4 4 4 5 5 6 7 7 9 10 9 10 9 8 5 4 3 3 3 3 8 6 10 12 16
5 1 6 3 5 4 2 3 2 3 8 2 2 2 3 1 2 2 3 2 2 3 4 4 5 5 6 7 10 9 8 8 8 9 5 3 3 4 3 5 6 6 9 13
6 5 4 4 2 2 2 3 1 4 5 2 3 3 3 4 4 1 3 3 2 2 2 2 4 5 5 5 7 8 9 8 7 8 6 7 4 3 3 3 4 7 11 7
1 5 5 3 3 2 3 3 2 1 3 2 4 3 5 4 5 5 4 4 3 1 2 3 4 4 4 4 6 6 8 7 8 7 4 3 4 4 5 4 6 6 9 10
2 2 1 2 5 4 6 1 5 3 2 3 4 3 4 4 3 2 3 5 3 1 2 4 3 3 4 5 5 5 7 6 7 7 6 6 5 6 5 5 4 4 4 4
5 1 4 3 4 4 6 5 3 5 5 4 4 2 7 3 4 4 5 6 3 2 3 4 5 5 5 6 6 5 6 7 6 6 5 5 5 5 4 6 5 6 4 3
2 6 4 6 3 3 5 2 4 4 2 5 4 3 3 3 4 4 5 2 1 3 4 5 4 4 5 5 5 7 7 5 6 6 5 5 5 3 3 4 4 4 4 4
4 5 3 2 1 3 5 5 2 5 2 2 4 6 2 2 4 4 6 5 4 2 3 5 5 5 6 5 5 7 8 8 7 8 6 6 6 6 5 6 5 4 5 5
2 3 1 4 2 2 2 2 4 3 3 4 5 5 4 4 3 3 4 7 7 5 2 3 5 5 4 5 6 5 6 7 7 7 7 6 6 6 6 6 6 6 5 7
5 4 5 3 1 2 3 2 2 3 2 3 2 6 5 5 6 6 7 7 7 6 3 2 3 4 5 5 6 5 5 6 7 6 6 6 6 6 6 5 5 6 6 6
3 5 3 7 4 3 1 2 2 4 5 1 3 7 2 4 5 6 7 6 5 4 4 2 1 3 5 5 5 5 6 5 5 6 6 6 6 7 6 6 6 6 5 5
6 2 4 8 5 4 2 3 2 4 3 4 4 6 2 5 6 8 7 7 6 3 3 2 2 3 3 5 5 5 5 5 5 5 6 6 7 7 7 7 6 6 6 6
4 4 6 5 5 3 3 3 5 5 3 3 6 8 11 7 8 9 8 7 6 4 6 4 3 3 3 3 4 5 5 5 5 6 6 7 7 7 7 7 8 8 7 8
1 3 3 5 6 3 5 5 5 8 5 6 4 7 14 9 8 7 5 5 4 7 7 6 4 4 3 4 4 4 4 5 5 4 5 6 6 6 7 7 7 8 8 8
1 2 4 5 3 2 5 8 9 3 4 10 11 18 12 8 4 4 8 4 6 8 7 7 5 6 6 5 4 4 3 2 2 4 5 5 5 5 6 6 7 8 8 8
4 4 3 4 5 6 8 8 13 6 6 11 6 11 3 3 7 7 7 7 8 8 7 6 7 6 5 5 4 4 3 1 2 3 3 3 3 4 5 4 6 7 7 7
5 3 2 3 5 3 5 4 8 7 6 17 9 7 6 6 6 8 8 7 8 8 8 7 6 6 5 4 4 2 1 1 2 2 3 3 4 4 4 4 6 6 5 7
1 4 2 3 3 8 2 6 8 8 7 16 18 14 7 4 6 11 11 11 10 8 8 7 6 5 4 6 5 4 2 1 1 2 3 4 4 4 4 5 4 3 5 6
4 5 3 3 4 6 4 3 5 3 5 8 14 9 6 6 1 4 6 2 7 7 6 7 7 5 6 6 6 5 4 2 1 1 3 3 3 4 4 4 3 2 4 5
3 2 5 2 2 10 6 4 6 5 5 6 8 6 8 6 6 3 1 3 3 4 7 7 7 8 7 6 6 6 5 5 4 3 1 2 3 2 1 2 1 3 4 5
8 8 4 3 2 9 8 4 7 4 0 5 5 5 8 7 4 5 5 4 5 6 5 6 7 7 7 7 6 6 7 5 5 4 3 2 2 2 2 3 2 4 4 5
4 8 7 10 7 3 11 6 7 2 3 5 5 6 9 7 7 7 6 7 8 7 7 6 7 6 5 6 6 6 5 6 5 5 5 4 3 4 4 4 3 3 3 2
5 5 3 3 4 12 10 10 7 7 8 4 4 4 6 7 7 8 8 7 7 8 8 6 7 7 9 8 8 7 5 6 7 6 5 4 4 4 3 2 3 3 3 3
5 10 6 6 8 6 10 12 13 11 10 8 7 8 10 8 9 8 7 8 8 8 6 8 11 10 12 7 10 8 7 8 6 5 5 5 4 5 5 3 4 4 3 4
6 7 6 7 8 6 4 3 7 12 12 12 9 7 9 10 12 8 9 8 7 8 6 7 10 10 12 9 10 8 9 10 9 7 5 6 5 4 3 4 1 6 6 9
Wind_Direction
12 63 41 353 346 216 188 109 323 293 263 5 27 198 226 26 69 62 57 38 29 30 20 11 3 12 1 1 6 10 6 3 37 3 4 317 327 349 338 347 294 176 176 179
38 59 331 330 5 57 57 44 339 288 290 344 287 295 200 236 112 115 114 75 42 29 27 12 4 6 6 355 1 3 3 2 14 27 333 325 332 315 309 319 305 259 185 187
100 10 327 95 27 45 67 104 305 249 317 288 327 4 206 246 126 87 45 37 50 40 44 8 10 10 2 359 350 353 359 3 14 11 353 334 314 297 334 2 346 325 218 206
72 335 28 27 84 339 159 190 317 318 2 324 34 278 252 207 213 240 309 323 344 46 37 10 19 26 1 351 353 341 348 1 7 3 3 355 357 332 3 310 302 309 295 215
223 11 359 4 309 300 230 280 243 134 317 347 341 70 269 132 243 237 258 266 292 40 68 35 29 18 358 359 354 335 338 347 355 354 1 348 346 320 317 305 311 317 333 247
77 106 47 293 299 250 295 90 46 55 39 30 278 108 278 204 225 200 223 261 275 326 36 39 39 12 340 353 346 333 348 333 358 337 341 347 329 324 328 312 301 323 315 312
338 27 331 36 322 331 28 50 358 2 9 226 338 13 246 221 199 202 226 257 245 354 3 20 17 355 345 348 340 338 356 339 343 334 337 324 310 306 311 318 331 338 313 341
94 336 14 345 62 304 339 92 139 201 321 293 314 242 273 214 184 208 213 219 209 347 344 353 12 359 346 348 340 348 354 339 337 331 328 311 319 304 292 289 304 302 304 294
101 299 326 8 350 95 312 36 144 98 68 303 273 295 278 223 264 247 237 171 204 242 317 334 351 21 357 342 352 351 348 348 344 338 331 325 332 327 314 304 285 282 293 300
176 5 270 287 4 337 51 184 41 11 45 316 302 292 252 248 187 166 174 209 218 214 245 324 339 356 7 343 327 347 346 340 336 338 330 330 335 326 317 311 328 324 326 321
122 100 285 359 283 175 0 360 54 112 121 153 288 275 218 225 197 219 224 220 224 210 204 267 327 340 346 354 340 328 341 340 339 331 335 340 342 338 336 337 335 335 332 337
164 133 264 223 260 308 242 223 143 122 270 198 168 274 295 251 222 226 244 239 222 192 179 232 316 339 340 341 335 331 330 340 342 338 344 354 360 1 0 358 355 354 7 9
170 86 351 340 354 356 232 211 152 106 75 210 144 263 330 303 277 261 266 257 232 217 209 256 287 303 325 323 324 328 334 331 344 360 3 8 9 13 14 11 10 21 30 31
118 113 165 211 211 134 198 235 175 128 120 193 231 291 292 279 270 288 281 271 246 232 260 248 263 256 279 294 304 318 327 338 345 6 19 19 13 18 23 21 22 28 34 40
102 136 136 260 258 263 226 187 193 186 195 178 250 227 273 268 259 263 263 291 277 253 248 243 222 248 262 282 305 309 325 345 353 26 25 25 14 26 36 34 31 36 40 41
225 152 103 295 313 322 256 226 208 203 242 271 268 285 269 281 228 259 253 221 249 254 247 246 228 233 234 224 250 283 285 323 32 25 33 26 21 22 31 36 39 47 44 44
163 129 77 262 324 327 301 216 182 192 211 193 189 227 256 282 267 265 258 213 221 232 237 223 231 226 219 201 204 236 260 283 97 71 34 46 41 43 40 37 57 53 55 56
135 94 94 242 13 320 245 149 178 199 213 213 260 238 211 231 256 267 250 235 228 217 222 216 211 218 214 188 188 206 188 129 103 70 47 36 61 54 36 42 63 57 55 59
119 128 88 123 182 292 237 191 166 182 274 204 220 247 219 253 305 291 245 215 218 206 203 199 189 181 189 190 180 176 152 114 106 81 47 40 65 80 71 66 63 64 63 63
70 66 110 99 145 231 252 203 150 179 295 182 194 227 198 149 127 260 323 285 222 202 172 172 171 160 180 200 167 165 182 174 176 100 73 54 78 97 107 107 102 78 78 78
105 28 173 162 216 282 244 153 144 90 231 156 181 194 159 187 205 215 142 313 189 208 178 157 167 178 195 179 167 185 177 206 180 151 120 89 88 107 141 122 86 99 90 89
164 150 189 93 116 268 146 76 177 219 334 142 173 192 197 226 246 234 246 190 197 175 178 185 173 199 191 184 174 192 206 191 165 149 142 129 127 128 109 92 50 71 87 88
216 185 179 192 210 233 196 195 223 220 194 194 177 190 201 217 226 219 227 223 200 207 192 187 201 198 208 195 187 194 215 163 165 158 177 182 165 141 150 133 122 99 89 93
239 196 196 91 239 228 225 247 245 213 226 233 228 190 188 221 223 225 220 220 218 197 208 183 175 214 218 201 204 211 175 166 163 182 191 187 172 164 162 157 162 148 159 151
186 147 176 268 271 274 247 226 241 231 228 244 236 225 230 221 243 228 232 225 219 214 195 181 199 210 226 197 207 195 184 164 186 190 184 198 197 185 175 186 179 179 202 176
195 173 174 217 203 179 218 196 196 217 224 222 218 236 234 209 235 214 234 226 212 216 188 200 209 210 221 196 214 195 180 181 181 195 202 195 188 193 187 173 200 222 203 203